White Plains, CT

2:08 PM EDT on June 22, 2017 (GMT -0400)
Westchester County

Weather History for KHPN - November, 2011

Change the Weather History Date:

Saturday, November 5, 2011

  Actual Average Record
Temperature  
Mean Temperature 41 °F -  
Max Temperature 50 °F 52 °F 72 °F (2005)
Min Temperature 32 °F 37 °F 28 °F (1983)
Degree Days  
Heating Degree Days 24    
Moisture  
Dew Point 25 °F    
Average Humidity 59    
Maximum Humidity 76    
Minimum Humidity 33    
Precipitation  
Precipitation 0.00 in - - ()
Sea Level Pressure  
Sea Level Pressure 30.42 in    
Wind  
Wind Speed 7 mph (NNW)    
Max Wind Speed 13 mph    
Max Gust Speed -    
Visibility 10 miles    
Events      
Averages and records for this station are not official NWS values.
T = Trace of Precipitation, MM = Missing Value Source: NWS Daily Summary

Daily Weather History Graph

Daily Weather History Graph

Search for Another Location

Airport or City:

Trip Planner

Search our weather history database for the weather conditions in past years. The results will help you decide how hot, cold, wet, or windy it might be!

Date:

Astronomy

Nov. 05, 2011 Rise Set
Actual Time 7:30 AM EDT 5:46 PM EDT
Civil Twilight 7:01 AM EDT 6:14 PM EDT
Nautical Twilight 6:28 AM EDT 6:47 PM EDT
Astronomical Twilight 5:56 AM EDT 7:19 PM EDT
Moon 3:04 PM EDT (11/5) 2:35 AM EDT (11/5)
Length of Visible Light 11h 13m
Length of Day
10h 15m
Waxing Gibbous, 78% of the Moon is Illuminated
Nov 5
Waxing Gibbous
Nov 10
Full
Nov 18
Last Quarter
Nov 25
New
Dec 2
First Quarter

Hourly Weather History & Observations

Time (EDT) Temp. Windchill Dew Point Humidity Pressure Visibility Wind Dir Wind Speed Gust Speed Precip Events Conditions
12:56 AM 36.0 °F 29.6 °F 24.1 °F 62% 30.29 in 10.0 mi North 8.1 mph - N/A   Clear
1:56 AM 36.0 °F 29.6 °F 23.0 °F 59% 30.30 in 10.0 mi North 8.1 mph - N/A   Clear
2:56 AM 35.6 °F 29.2 °F 24.8 °F 65% 30.29 in 10.0 mi NNW 8.1 mph - N/A   Clear
3:56 AM 33.8 °F 26.4 °F 24.8 °F 70% 30.29 in 10.0 mi NNW 9.2 mph - N/A   Clear
4:56 AM 32.0 °F 25.6 °F 24.1 °F 73% 30.34 in 10.0 mi NNW 6.9 mph - N/A   Clear
5:56 AM 33.1 °F 24.9 °F 25.0 °F 72% 30.36 in 10.0 mi NNW 10.4 mph - N/A   Clear
6:56 AM 33.8 °F 25.3 °F 24.8 °F 70% 30.36 in 10.0 mi North 11.5 mph - N/A   Clear
7:56 AM 33.1 °F 23.9 °F 24.1 °F 70% 30.41 in 10.0 mi North 12.7 mph - N/A   Clear
8:56 AM 36.0 °F 27.5 °F 24.1 °F 62% 30.44 in 10.0 mi North 12.7 mph - N/A   Clear
9:56 AM 39.0 °F 32.3 °F 24.1 °F 55% 30.45 in 10.0 mi North 10.4 mph - N/A   Clear
10:56 AM 42.8 °F 37.0 °F 24.8 °F 49% 30.45 in 10.0 mi North 10.4 mph - N/A   Clear
11:56 AM 44.6 °F 42.2 °F 24.8 °F 46% 30.45 in 10.0 mi NNE 4.6 mph - N/A   Clear
12:56 PM 46.9 °F - 25.0 °F 42% 30.46 in 10.0 mi NNW 5.8 mph - N/A   Clear
1:56 PM 48.0 °F - 24.1 °F 39% 30.45 in 10.0 mi WNW 3.5 mph - N/A   Clear
2:56 PM 48.9 °F - 24.1 °F 38% 30.45 in 10.0 mi NNE 4.6 mph - N/A   Clear
3:56 PM 50.0 °F - 21.9 °F 33% 30.45 in 10.0 mi Calm Calm - N/A   Clear
4:56 PM 48.9 °F - 23.0 °F 36% 30.46 in 10.0 mi NNW 3.5 mph - N/A   Clear
5:56 PM 43.0 °F 41.3 °F 26.1 °F 51% 30.45 in 10.0 mi WNW 3.5 mph - N/A   Clear
6:56 PM 41.0 °F - 27.0 °F 57% 30.46 in 10.0 mi Calm Calm - N/A   Clear
7:56 PM 39.0 °F - 28.9 °F 67% 30.46 in 10.0 mi Calm Calm - N/A   Clear
8:56 PM 37.0 °F 34.5 °F 30.0 °F 76% 30.48 in 10.0 mi WNW 3.5 mph - N/A   Clear
9:56 PM 34.0 °F 31.0 °F 25.0 °F 70% 30.48 in 10.0 mi WNW 3.5 mph - N/A   Clear
10:56 PM 35.1 °F 32.2 °F 26.1 °F 70% 30.48 in 10.0 mi WNW 3.5 mph - N/A   Clear
11:56 PM 33.1 °F 30.0 °F 25.0 °F 72% 30.48 in 10.0 mi WNW 3.5 mph - N/A   Clear